This is the latest recevied weather packets stored in our database for station/object KD4EG. If no packets are shown the sender has not sent any weather packets the latest 10 day(s).
| Time | Temp. | Humidity | Pressure | Rain* | Wind** | Luminosity | Snow |
|---|---|---|---|---|---|---|---|
| 1777366966 | 10.56° C | 94% | 1022.6 hPa | 0 mm | - | 0 W/m² | - |
| 1777366660 | 10.56° C | 93% | 1023 hPa | 0 mm | - | 0 W/m² | - |
| 1777366355 | 11.11° C | 92% | 1022.5 hPa | 1.27 mm | - | 0 W/m² | - |
| 1777366052 | 11.11° C | 91% | 1022.7 hPa | 4.32 mm | - | 0 W/m² | - |
| 1777365748 | 11.11° C | 89% | 1023.1 hPa | 4.83 mm | - | 0 W/m² | - |
| 1777365444 | 11.11° C | 88% | 1023 hPa | 1.78 mm | - | 0 W/m² | - |
| 1777365142 | 11.67° C | 87% | 1022.8 hPa | 0 mm | - | 0 W/m² | - |
| 1777364842 | 11.67° C | 86% | 1023.2 hPa | 0 mm | - | 0 W/m² | - |
| 1777364537 | 12.22° C | 84% | 1023.7 hPa | 0 mm | - | 0 W/m² | - |
| 1777364234 | 12.22° C | 81% | 1024.1 hPa | 0 mm | - | 0 W/m² | - |
| 1777363930 | 12.22° C | 80% | 1024.6 hPa | 0 mm | - | 0 W/m² | - |
| 1777363627 | 12.22° C | 78% | 1024.7 hPa | 0 mm | - | 0 W/m² | - |
| 1777363323 | 12.22° C | 79% | 1024.8 hPa | 0 mm | - | 0 W/m² | - |
| 1777363021 | 12.22° C | 79% | 1024.5 hPa | 0 mm | - | 0 W/m² | - |
| 1777362718 | 12.22° C | 79% | 1024.6 hPa | 0 mm | - | 0 W/m² | - |
| 1777362416 | 12.22° C | 78% | 1024.2 hPa | 0 mm | - | 0 W/m² | - |
| 1777362113 | 12.78° C | 77% | 1023.8 hPa | 0 mm | - | 0 W/m² | - |
| 1777361810 | 12.78° C | 77% | 1023.6 hPa | 0 mm | - | 0 W/m² | - |
| 1777361507 | 12.78° C | 77% | 1023.6 hPa | 0 mm | - | 0 W/m² | - |
| 1777361204 | 12.22° C | 77% | 1023.6 hPa | 0 mm | - | 0 W/m² | - |
| 1777360901 | 12.22° C | 77% | 1023.7 hPa | 0 mm | - | 0 W/m² | - |
| 1777360599 | 12.22° C | 77% | 1023.3 hPa | 0 mm | - | 0 W/m² | - |
| 1777360295 | 11.67° C | 79% | 1023.3 hPa | 0 mm | - | 0 W/m² | - |
| 1777359993 | 11.67° C | 78% | 1023.4 hPa | 0 mm | - | 0 W/m² | - |
| 1777359689 | 11.67° C | 78% | 1023.3 hPa | 0 mm | - | 0 W/m² | - |
* Rain latest hour (hover to see other rain measurements)
** Current wind speed in m/s (hover to see current wind gust speed)